星链-4575 (STARLINK-4575 )

导读

STARLINK-4575是美国SpaceX公司星链(Starlink)星座中的一颗低轨通信卫星,于2022年8月19日发射升空。作为星链一代V1.5批次卫星,它配备激光星间链路,可实现卫星间直接通信,能为全球尤其是偏远地区提供高速宽带互联网服务,进一步扩展了星链网络的全球覆盖范围,助力构建低轨巨型卫星通信星座。

Basic Information
目录编号:
53565
目录名称:
STARLINK-4575
国际标识:
2022-101AQ
轨道中心:
EARTH
卫星名称:
星链-4575
卫星全名:
星链-4575 (STARLINK-4575 )
卫星状态:
在轨 (已飞行1477 天)
发射日期:
2022-08-19 UTC
国别 :
美国 (US)
星等 :
--
Orbit Information
数据来源 国际轨道数据
星历时间: 2026-09-03T23:20:33+0800
12小时前
查看轨道信息
半长轴: 6840.859km
偏心率: 0.0001184
轨道倾角: 53.160°
近地点辐角 85.751°
升交点赤经 322.501°
平近点角 274.363°
近地点: 461.912km
远地点: 463.532km
周期: 93.848分钟
每日圈数: 15.343939
Detailed Information
固有亮度:
5
最大亮度:
2.5
卫星平台:
Starlink v1.5
覆盖范围:
全球
运营商:
太空探索技术公司
运营商所在国:
美国
制造商(研发单位):
太空探索技术公司
制造商所在国:
美国
使用方式:
暂无
Satellite Introduction
星链(Starlink)计划是由太空探索技术公司(SpaceX)提出的一个巨型低轨卫星互联网星座项目,计划在2019年至2024年间在太空搭建由约1.2万颗卫星组成的“星链”网络,其中1584颗将部署在地球上空550千米处的近地轨道,并从2020年开始工作。该卫星仍在工作。
2D Orbit Map
3D Orbit Map
Orbit Altitude Analysis Chart
Orbit Inclination Analysis Chart
Orbit Comprehensive Analysis Chart
View Comprehensive Chart
Conjunction Data List
Event ID Objects TCA Miss Dist (km) Collision Risk Probability Collision Risk Index (CRI) Action
CDM_260903-121205-356506-323824
2026-09-03T
12:12:11+0000
1.075 km
极远距离
2.113458E-5 中风险 0.61
CDM_260903-181605-356506-177923
2026-09-03T
18:16:16+0000
2.121 km
极远距离
2.434471E-6 低风险 0.43
CDM_260904-044705-260205-356521
2026-09-04T
04:47:57+0000
2.879 km
极远距离
1.18825E-6 低风险 0.36
CDM_260903-215405-356505-420421
2026-09-03T
21:54:35+0000
2.854 km
极远距离
8.338023E-7 极低风险 0.33
CDM_260905-144005-231305-356521
2026-09-05T
14:40:53+0000
2.792 km
极远距离
7.073525E-7 极低风险 0.32